QFA14D EGTE-EGJJ

Flight info

Callsign QFA14D
Flight time 0h 29m
Altitude 8000
Route DAWLY N864 ABBEW N90 ENHEL N862 SKERY
Aircraft DH8D/M-SDE2E3FGRY/H

Departure

Time 2026-05-05 15:46
Airport Exeter International Airport (EGTE)

Arrival

Time 2026-05-05 16:15
Airport Jersey Airport (EGJJ)
Time Latitude Longitude Altitude Speed Heading
2026-05-05 15:06 50.73076 -3.41875 100 ft 0 kts 130°
2026-05-05 15:30 50.73075 -3.41874 100 ft 0 kts 130°
2026-05-05 15:30 50.73074 -3.41872 100 ft 0 kts 130°
2026-05-05 15:33 50.73074 -3.41871 100 ft 0 kts 130°
2026-05-05 15:34 50.73073 -3.41869 100 ft 0 kts 130°
2026-05-05 15:35 50.73072 -3.41869 100 ft 0 kts 130°
2026-05-05 15:35 50.73072 -3.41868 100 ft 0 kts 130°
2026-05-05 15:38 50.73077 -3.41877 100 ft 3 kts 130°
2026-05-05 15:38 50.73082 -3.41887 100 ft 0 kts 135°
2026-05-05 15:38 50.73087 -3.41894 100 ft 1 kts 136°
2026-05-05 15:38 50.73092 -3.41903 100 ft 0 kts 140°
2026-05-05 15:39 50.73095 -3.41906 100 ft 1 kts 155°
2026-05-05 15:39 50.73099 -3.41908 100 ft 0 kts 182°
2026-05-05 15:39 50.73102 -3.41908 100 ft 0 kts 199°
2026-05-05 15:39 50.73105 -3.41906 100 ft 0 kts 220°
2026-05-05 15:43 50.73098 -3.41918 100 ft 8 kts 227°
2026-05-05 15:43 50.73072 -3.42067 100 ft 11 kts 268°
2026-05-05 15:43 50.73075 -3.42141 100 ft 2 kts 284°
2026-05-05 15:43 50.73076 -3.42145 100 ft 0 kts 285°
2026-05-05 15:44 50.73077 -3.42152 100 ft 6 kts 288°
2026-05-05 15:44 50.73179 -3.42241 100 ft 22 kts 346°
2026-05-05 15:45 50.73284 -3.42261 100 ft 14 kts 31°
2026-05-05 15:45 50.73367 -3.41841 100 ft 78 kts 75°
2026-05-05 15:45 50.73557 -3.40664 119 ft 136 kts 75°
2026-05-05 15:45 50.73754 -3.39065 443 ft 154 kts 79°
2026-05-05 15:46 50.73849 -3.37543 1059 ft 127 kts 81°
2026-05-05 15:46 50.73895 -3.36258 1308 ft 112 kts 84°
2026-05-05 15:46 50.73514 -3.35098 1061 ft 149 kts 149°
2026-05-05 15:46 50.72506 -3.35232 1402 ft 146 kts 214°
2026-05-05 15:47 50.71648 -3.36046 1912 ft 151 kts 211°
2026-05-05 15:47 50.71010 -3.36559 2323 ft 160 kts 209°
2026-05-05 15:47 50.69577 -3.37664 3115 ft 193 kts 207°
2026-05-05 15:47 50.68255 -3.38655 3478 ft 227 kts 206°
2026-05-05 15:48 50.66767 -3.39750 3804 ft 250 kts 206°
2026-05-05 15:48 50.65201 -3.40882 4054 ft 242 kts 205°
2026-05-05 15:48 50.63702 -3.41954 4264 ft 230 kts 206°
2026-05-05 15:48 50.62268 -3.42983 4417 ft 229 kts 206°
2026-05-05 15:49 50.60808 -3.44030 4584 ft 230 kts 206°
2026-05-05 15:49 50.59354 -3.45074 4814 ft 226 kts 206°
2026-05-05 15:49 50.57956 -3.46073 5053 ft 222 kts 205°
2026-05-05 15:49 50.56476 -3.46682 5296 ft 218 kts 188°
2026-05-05 15:50 50.54988 -3.46927 5549 ft 214 kts 186°
2026-05-05 15:50 50.53517 -3.47158 5813 ft 210 kts 186°
2026-05-05 15:50 50.52085 -3.47385 6062 ft 206 kts 187°
2026-05-05 15:50 50.50681 -3.47560 6302 ft 202 kts 178°
2026-05-05 15:51 50.49368 -3.46940 6535 ft 194 kts 152°
2026-05-05 15:51 50.48188 -3.45970 6768 ft 189 kts 151°
2026-05-05 15:51 50.47030 -3.45015 6992 ft 184 kts 151°
2026-05-05 15:51 50.45919 -3.44102 7214 ft 178 kts 151°
2026-05-05 15:52 50.44845 -3.43223 7456 ft 171 kts 152°
2026-05-05 15:52 50.43817 -3.42387 7670 ft 162 kts 151°
2026-05-05 15:52 50.42791 -3.41565 7978 ft 175 kts 152°
2026-05-05 15:52 50.41640 -3.40643 8309 ft 195 kts 152°
2026-05-05 15:53 50.40373 -3.39616 8640 ft 216 kts 152°
2026-05-05 15:53 50.38960 -3.38470 8868 ft 242 kts 152°
2026-05-05 15:53 50.37386 -3.37189 8945 ft 270 kts 152°
2026-05-05 15:53 50.35656 -3.35783 8955 ft 282 kts 152°
2026-05-05 15:54 50.33942 -3.34386 8950 ft 279 kts 152°
2026-05-05 15:54 50.32219 -3.32986 8950 ft 277 kts 152°
2026-05-05 15:54 50.30523 -3.31613 8949 ft 275 kts 152°
2026-05-05 15:54 50.28809 -3.30228 8950 ft 273 kts 152°
2026-05-05 15:55 50.27127 -3.28871 8949 ft 272 kts 152°
2026-05-05 15:55 50.25450 -3.27521 8948 ft 271 kts 152°
2026-05-05 15:55 50.23775 -3.26178 8948 ft 270 kts 152°
2026-05-05 15:55 50.22012 -3.25183 8951 ft 270 kts 165°
2026-05-05 15:56 50.20176 -3.24519 8949 ft 270 kts 167°
2026-05-05 15:56 50.18364 -3.23881 8951 ft 270 kts 167°
2026-05-05 15:56 50.16528 -3.23234 8950 ft 269 kts 166°
2026-05-05 15:56 50.14699 -3.22586 8950 ft 269 kts 166°
2026-05-05 15:57 50.12870 -3.21936 8952 ft 269 kts 166°
2026-05-05 15:57 50.11054 -3.21288 8949 ft 269 kts 166°
2026-05-05 15:57 50.09227 -3.20636 8949 ft 269 kts 166°
2026-05-05 15:57 50.07403 -3.19984 8948 ft 269 kts 166°
2026-05-05 15:58 50.05600 -3.19338 8950 ft 269 kts 166°
2026-05-05 15:58 50.03762 -3.18680 8946 ft 269 kts 166°
2026-05-05 15:58 50.01940 -3.18028 8945 ft 269 kts 166°
2026-05-05 15:58 50.00131 -3.17301 8932 ft 269 kts 159°
2026-05-05 15:59 49.98500 -3.15911 8940 ft 266 kts 144°
2026-05-05 15:59 49.96963 -3.14321 8935 ft 267 kts 144°
2026-05-05 15:59 49.95422 -3.12724 8935 ft 267 kts 144°
2026-05-05 15:59 49.93869 -3.11117 8956 ft 267 kts 144°
2026-05-05 16:00 49.92326 -3.09525 8844 ft 272 kts 144°
2026-05-05 16:00 49.90736 -3.07889 8611 ft 279 kts 144°
2026-05-05 16:00 49.89092 -3.06203 8366 ft 283 kts 144°
2026-05-05 16:00 49.87449 -3.04521 8119 ft 283 kts 144°
2026-05-05 16:01 49.85804 -3.02840 7867 ft 282 kts 145°
2026-05-05 16:01 49.84182 -3.01184 7611 ft 279 kts 145°
2026-05-05 16:01 49.82571 -2.99541 7350 ft 277 kts 144°
2026-05-05 16:01 49.80975 -2.97917 7086 ft 276 kts 145°
2026-05-05 16:02 49.79369 -2.96284 6818 ft 275 kts 145°
2026-05-05 16:02 49.77774 -2.94665 6554 ft 276 kts 145°
2026-05-05 16:02 49.76176 -2.93045 6301 ft 277 kts 145°
2026-05-05 16:02 49.74550 -2.91398 6058 ft 277 kts 144°
2026-05-05 16:03 49.72963 -2.89791 5963 ft 271 kts 144°
2026-05-05 16:03 49.71405 -2.88217 5932 ft 263 kts 144°
2026-05-05 16:03 49.69893 -2.86688 5918 ft 254 kts 144°
2026-05-05 16:03 49.68453 -2.85234 5914 ft 245 kts 144°
2026-05-05 16:04 49.67052 -2.83820 5914 ft 238 kts 143°
2026-05-05 16:04 49.65679 -2.82435 5912 ft 230 kts 143°
2026-05-05 16:04 49.64371 -2.81116 5917 ft 223 kts 143°
2026-05-05 16:04 49.63075 -2.79812 5930 ft 229 kts 144°
2026-05-05 16:05 49.61715 -2.78447 5923 ft 238 kts 144°
2026-05-05 16:05 49.60297 -2.77021 5907 ft 245 kts 143°
2026-05-05 16:05 49.58850 -2.75567 5945 ft 252 kts 144°
2026-05-05 16:05 49.57339 -2.74051 5939 ft 266 kts 144°
2026-05-05 16:06 49.55756 -2.72464 5936 ft 276 kts 144°
2026-05-05 16:06 49.54126 -2.70831 5938 ft 282 kts 144°
2026-05-05 16:06 49.52498 -2.69201 5929 ft 279 kts 144°
2026-05-05 16:06 49.50877 -2.67578 5926 ft 277 kts 143°
2026-05-05 16:07 49.49274 -2.65975 5927 ft 274 kts 143°
2026-05-05 16:07 49.47679 -2.64380 5923 ft 267 kts 143°
2026-05-05 16:07 49.46136 -2.62838 5925 ft 263 kts 143°
2026-05-05 16:07 49.44625 -2.61329 5926 ft 259 kts 143°
2026-05-05 16:08 49.43063 -2.59917 5925 ft 257 kts 150°
2026-05-05 16:08 49.41447 -2.58754 5879 ft 256 kts 152°
2026-05-05 16:08 49.39845 -2.57628 5757 ft 254 kts 152°
2026-05-05 16:08 49.38251 -2.56509 5633 ft 252 kts 152°
2026-05-05 16:09 49.36651 -2.55386 5501 ft 249 kts 152°
2026-05-05 16:09 49.35090 -2.54287 5374 ft 246 kts 152°
2026-05-05 16:09 49.33541 -2.53199 5247 ft 244 kts 152°
2026-05-05 16:09 49.32017 -2.52127 5119 ft 241 kts 151°
2026-05-05 16:10 49.30504 -2.51062 4993 ft 239 kts 151°
2026-05-05 16:10 49.29000 -2.50004 4864 ft 236 kts 151°
2026-05-05 16:10 49.27498 -2.48947 4729 ft 235 kts 151°
2026-05-05 16:10 49.26026 -2.47911 4437 ft 239 kts 151°
2026-05-05 16:11 49.24493 -2.46830 4077 ft 245 kts 151°
2026-05-05 16:11 49.19915 -2.43136 2895 ft 251 kts 126°
2026-05-05 16:12 49.19271 -2.40728 2402 ft 244 kts 91°
2026-05-05 16:12 49.19825 -2.35878 1899 ft 225 kts 82°
2026-05-05 16:13 49.19947 -2.29530 1452 ft 159 kts 79°
2026-05-05 16:13 49.20081 -2.27908 1233 ft 145 kts 78°
2026-05-05 16:13 49.20208 -2.26442 1050 ft 137 kts 78°
2026-05-05 16:14 49.20447 -2.23602 661 ft 129 kts 76°
2026-05-05 16:14 49.20670 -2.20933 379 ft 125 kts 80°
2026-05-05 16:15 49.20878 -2.18691 274 ft 46 kts 82°
2026-05-05 16:15 49.20717 -2.18652 271 ft 44 kts 265°
2026-05-05 16:16 49.20702 -2.19501 276 ft 28 kts 261°
2026-05-05 16:16 49.20570 -2.19643 273 ft 0 kts 162°